TimeEDT,TemperatureF,Dew PointF,Humidity,Sea Level PressureIn,VisibilityMPH,Wind Direction,Wind SpeedMPH,Gust SpeedMPH,PrecipitationIn,Events,Conditions,WindDirDegrees,DateUTC
12:18 AM,48.2,44.6,87,30.23,7.0,NNE,9.2,-,0.00,Rain,Light Rain,30,2013-09-16 04:18:00
1:01 AM,48.2,42.8,82,30.24,10.0,North,10.4,-,N/A,,Overcast,350,2013-09-16 05:01:00
1:54 AM,46.9,41.0,80,30.27,10.0,North,8.1,-,N/A,,Overcast,10,2013-09-16 05:54:00
2:54 AM,45.0,37.9,76,30.29,10.0,NNE,12.7,-,N/A,,Overcast,30,2013-09-16 06:54:00
3:54 AM,43.0,35.1,74,30.31,10.0,NNE,8.1,-,N/A,,Overcast,30,2013-09-16 07:54:00
4:54 AM,44.1,36.0,73,30.33,10.0,North,8.1,-,N/A,,Overcast,10,2013-09-16 08:54:00
5:54 AM,44.1,36.0,73,30.35,10.0,NNE,5.8,-,N/A,,Overcast,30,2013-09-16 09:54:00
6:54 AM,44.1,35.1,71,30.37,10.0,NNE,6.9,-,N/A,,Overcast,30,2013-09-16 10:54:00
7:54 AM,43.0,34.0,71,30.39,10.0,NE,4.6,-,N/A,,Overcast,40,2013-09-16 11:54:00
8:54 AM,45.0,35.1,68,30.42,10.0,NE,5.8,-,N/A,,Mostly Cloudy,40,2013-09-16 12:54:00
9:54 AM,46.9,35.1,63,30.43,10.0,NE,6.9,-,N/A,,Mostly Cloudy,40,2013-09-16 13:54:00
10:39 AM,48.2,35.6,62,30.43,10.0,ENE,4.6,-,N/A,,Scattered Clouds,60,2013-09-16 14:39:00
10:46 AM,48.2,35.6,62,30.43,10.0,Calm,Calm,-,N/A,,Mostly Cloudy,0,2013-09-16 14:46:00
10:54 AM,50.0,36.0,59,30.44,10.0,North,6.9,-,N/A,,Mostly Cloudy,360,2013-09-16 14:54:00
11:19 AM,48.2,35.6,62,30.43,10.0,NNE,5.8,-,N/A,,Scattered Clouds,20,2013-09-16 15:19:00
11:54 AM,52.0,36.0,54,30.44,10.0,Variable,5.8,-,N/A,,Clear,0,2013-09-16 15:54:00
12:54 PM,54.0,36.0,51,30.43,10.0,Variable,3.5,-,N/A,,Clear,0,2013-09-16 16:54:00
1:54 PM,55.0,36.0,49,30.43,10.0,NE,6.9,-,N/A,,Clear,40,2013-09-16 17:54:00
2:54 PM,55.9,35.1,45,30.43,10.0,NNE,10.4,-,N/A,,Clear,30,2013-09-16 18:54:00
3:54 PM,57.0,28.9,34,30.41,10.0,Calm,Calm,-,N/A,,Clear,0,2013-09-16 19:54:00
4:54 PM,57.0,32.0,39,30.40,10.0,Variable,6.9,-,N/A,,Clear,0,2013-09-16 20:54:00
5:54 PM,55.9,30.0,37,30.41,10.0,Calm,Calm,-,N/A,,Clear,0,2013-09-16 21:54:00
6:54 PM,55.0,30.9,40,30.40,10.0,East,4.6,-,N/A,,Clear,100,2013-09-16 22:54:00
7:54 PM,46.0,37.9,73,30.40,10.0,Calm,Calm,-,N/A,,Clear,0,2013-09-16 23:54:00
8:54 PM,39.9,37.9,93,30.41,10.0,Calm,Calm,-,N/A,,Clear,0,2013-09-17 00:54:00
9:54 PM,37.9,36.0,93,30.42,10.0,Calm,Calm,-,N/A,,Clear,0,2013-09-17 01:54:00
10:54 PM,37.0,35.1,93,30.42,10.0,Calm,Calm,-,N/A,,Clear,0,2013-09-17 02:54:00
11:54 PM,35.1,33.1,92,30.43,10.0,Calm,Calm,-,N/A,,Clear,0,2013-09-17 03:54:00